Simultaneous Nadir Overpasses (SNOs) Predictions

Prediction of SNOs between AQUA and NOAA-19 Satellite Orbit:

Table of predicted SNOs for the next 14.0 days since TLE Epoch: 6/18/2016
Index Date (AQUA) Time (AQUA) Lat,Lon (AQUA) SZA (AQUA ) Date (NOAA-19) Time (NOAA-19) Lat,Lon (NOAA-19) SZA (NOAA-19 ) Distance(km) Time Diff (sec)
1 06/19/2016 22:33:57 81.14, 158.48 60.26 06/19/2016 22:32:43 80.95, 158.17 60.20 21.61 74
2 06/19/2016 23:23:11 -80.84, -29.64 120.42 06/19/2016 23:23:26 -80.84, -29.60 120.43 0.67 15
3 06/22/2016 04:07:28 -80.87,-101.07 120.35 06/22/2016 04:06:30 -80.86,-100.93 120.34 2.58 58
4 06/22/2016 04:56:54 80.84, 66.90 59.60 06/22/2016 04:57:34 80.84, 66.98 59.57 1.41 40
5 06/24/2016 09:41:10 80.85, -4.25 59.66 06/24/2016 09:40:38 80.85, -4.31 59.69 1.19 32
6 06/24/2016 10:30:36 -80.84, 163.43 120.35 06/24/2016 10:31:33 -80.84, 163.31 120.36 2.12 57
7 06/26/2016 15:14:52 -80.85, 92.26 120.25 06/26/2016 15:14:36 -80.85, 92.30 120.24 0.76 16
8 06/28/2016 20:48:34 80.84,-171.07 59.86 06/28/2016 20:48:44 80.85,-171.03 59.85 0.72 10
9 07/01/2016 01:32:50 80.86, 117.64 60.04 07/01/2016 01:31:48 80.87, 117.55 60.09 1.80 62




NCC Satellite Simultaneous Nadir Overpasses (SNOs) Prediction Service
